Location: Chapel Hill
(35.9134°N, 79.0560°W)
Time: 19:03:27
(UTC-04:00)

Vanguard 1 - All Passes

Search period start: 01 November 2024 00:00
Search period end: 10 November 2024 23:00
Orbit: 649 x 3824 km, 34.3° (Epoch: 01 November)

Date Brightness Start Highest point End Pass type
(mag) Time Alt. Az. Time Alt. Az. Time Alt. Az.
01 Nov - 00:30:48 10° SW 00:37:31 50° SSE 00:49:40 10° E visible
01 Nov - 02:49:31 10° W 02:59:11 83° S 03:17:41 10° E visible
01 Nov - 05:09:52 10° W 05:23:32 75° SSW 05:46:06 10° ESE visible
01 Nov - 07:32:05 10° W 07:48:54 47° SSW 08:10:26 10° SSE daylight
01 Nov - 10:00:59 10° W 10:13:19 18° SW 10:26:04 10° SSW daylight
01 Nov - 22:34:29 10° SSE 22:37:55 15° SE 22:42:17 10° E night (unlit)
02 Nov - 00:49:58 10° SW 00:56:57 61° SSE 01:10:00 10° E visible
02 Nov - 03:09:06 10° W 03:19:08 84° S 03:38:09 10° E visible
02 Nov - 05:29:36 10° W 05:43:33 69° SSW 06:06:03 10° ESE visible
02 Nov - 07:52:23 10° W 08:08:43 39° SW 08:29:01 10° SSE daylight
02 Nov - 10:26:48 10° WSW 10:32:55 12° SW 10:39:06 10° SSW daylight
02 Nov - 22:52:22 10° S 22:56:54 23° SE 23:03:26 10° E night (unlit)
03 Nov - 01:09:18 10° WSW 01:16:31 70° SSE 01:30:17 10° E visible
03 Nov - 02:28:42 10° W 02:39:05 83° S 02:58:34 10° ESE visible
03 Nov - 04:49:22 10° W 05:03:32 61° SSW 05:25:44 10° SE visible
03 Nov - 07:13:03 10° W 07:28:29 31° SW 07:47:06 10° SSE daylight
03 Nov - 22:10:55 10° SSW 22:16:00 32° SE 22:23:59 10° E night (unlit)
04 Nov - 00:28:44 10° WSW 00:36:12 78° SSE 00:50:37 10° E visible
04 Nov - 02:48:19 10° W 02:59:02 79° S 03:18:54 10° ESE visible
04 Nov - 05:09:13 10° W 05:23:29 53° SSW 05:45:07 10° SE visible
04 Nov - 07:34:18 10° W 07:48:13 24° SW 08:04:27 10° S daylight
04 Nov - 22:29:49 10° SW 22:35:14 43° SSE 22:44:16 10° E night (unlit)
05 Nov - 00:48:13 10° W 00:55:57 82° S 01:10:58 10° E visible
05 Nov - 03:07:56 10° W 03:18:58 73° SSW 03:39:05 10° ESE visible
05 Nov - 05:29:12 10° W 05:43:23 45° SSW 06:04:07 10° SSE visible
05 Nov - 07:56:41 10° WSW 08:07:58 18° SW 08:20:37 10° S daylight
05 Nov - 20:34:31 10° SSE 20:35:51 11° SE 20:37:18 10° ESE night (unlit)
05 Nov - 22:48:57 10° SW 22:54:36 55° SSE 23:04:28 10° E night (unlit)
06 Nov - 01:07:44 10° W 01:15:45 83° S 01:31:20 10° E visible
06 Nov - 03:27:34 10° W 03:38:52 66° SSW 03:59:03 10° ESE visible
06 Nov - 05:49:24 10° W 06:03:16 37° SSW 06:22:43 10° SSE visible
06 Nov - 08:22:24 10° WSW 08:27:47 11° SW 08:33:28 10° SSW daylight
06 Nov - 20:51:33 10° S 20:54:54 18° SE 20:59:07 10° E night (unlit)
06 Nov - 23:08:14 10° WSW 23:14:05 66° SSE 23:24:37 10° E night (unlit)
07 Nov - 01:27:17 10° W 01:35:34 81° S 01:51:40 10° ESE visible
07 Nov - 03:47:15 10° W 03:58:46 58° SSW 04:18:45 10° SE visible
07 Nov - 06:09:58 10° W 06:23:07 29° SW 06:40:45 10° SSE visible
07 Nov - 21:09:56 10° SSW 21:14:02 27° SE 21:19:40 10° E night (unlit)
07 Nov - 23:27:38 10° WSW 23:33:41 75° SSE 23:44:46 10° E night (unlit)
08 Nov - 01:46:48 10° W 01:55:23 77° S 02:11:55 10° ESE visible
08 Nov - 04:07:01 10° W 04:18:40 50° SSW 04:38:08 10° SE visible
08 Nov - 06:31:10 10° W 06:43:00 22° SW 06:58:01 10° S daylight
08 Nov - 21:28:47 10° SW 21:33:16 37° SSE 21:39:52 10° E night (unlit)
08 Nov - 23:47:05 10° W 23:53:19 80° S 00:04:57 10° E visible
09 Nov - 02:06:22 10° W 02:15:12 70° SSW 02:32:02 10° ESE visible
09 Nov - 04:26:57 10° W 04:38:33 41° SSW 04:57:08 10° SSE visible
09 Nov - 06:53:34 10° WSW 07:02:55 16° SW 07:13:58 10° S daylight
09 Nov - 21:47:53 10° SW 21:52:36 49° SSE 21:59:55 10° E night (unlit)
10 Nov - 00:06:33 10° W 00:13:01 81° S 00:25:10 10° E visible
10 Nov - 02:25:56 10° W 02:35:00 62° SSW 02:51:57 10° ESE visible
10 Nov - 04:47:06 10° W 04:58:28 34° SSW 05:15:42 10° SSE visible
10 Nov - 07:21:45 10° SW 07:22:55 10° SW 07:24:04 10° SW daylight
10 Nov - 19:50:28 10° S 19:52:59 15° SE 19:55:45 10° ESE visible
10 Nov - 22:07:10 10° WSW 22:12:03 62° SSE 22:19:55 10° E night (unlit)
